DELTA 1 DEB, 7059

Orbit data source: Space-Track

DELTA 1 DEB, 7059 is space debris in SSO originally from a launch on Tue, 06 Nov 1973 UTC launched from the Air Force Western Test Range (AFWTR). Debris objects in space refer to the collection of defunct objects orbiting the Earth. Examples of debris include non-operational satellites, rocket bodies, and fragments generated from explosions, collisions, or faulty payload assembly.

Loading next visibility...
Identifier
7059, 1973-086BB
Orbit
SSO
Country
Flag of USUS
Related business
Manufacturer
Unknown
Mission
Spacecraft
Bus & Motor
Unknown
Mass
Unknown
Launch date (UTC)
1973-11-06 (53 years ago)
Launch vehicle
Unknown
Launch site
Air Force Western Test Range (AFWTR)
Object type
Payload
Rocket body
Debris
Shape & HBR
Unknown shape, 0.2 m
Radar Cross Section
Medium (>0.1 m² and <1 m²)

Expand to show TLE details & history
Last TLE update: 14 hours ago

TLE from 14 hours ago
0 DELTA 1 DEB
1  7059U 73086BB  26263.09828149  .00000402  00000-0  37819-2 0  9991
2  7059 102.0176  13.5724 0107626 134.9851  39.5065 12.28538189361055
Epoch: 2026-09-20T02:21Z
TLE epoch observation values (Epoch: 2026-09-20T02:21:31.520Z)
Latitude
4.53366°
Longitude
160.15616°
Altitude
1,492.114 km
Speed
7.148 km/s
True Right ascension
12h 58m 08s
True Declination
4° 30' 33"
Sunlit
Object was in daylight at epoch
Visualization orbit readout
Latitude
Unknown
Longitude
Unknown
Altitude
Unknown
Speed
Unknown
Apparent Right ascension
Unknown
Apparent Declination
Unknown
Sunlit
N/A
Visualization observer readout
Local Sidereal Time
09:47:10
Azimuth
Unknown
Elevation
Unknown
Doppler factor
Unknown
Orbital elements
Apogee altitude
1,638.52 km
Perigee altitude
1,467.797 km
Semi-major axis
7,931.296 km
Eccentricity
0.01076
Inclination
102.0176°
RAAN
13.5724°
Arg. of periapsis
134.9851°
True anomaly
40.29929°
Mean anomaly
39.5065°
Eccentric anomaly
39.90207°
Mean motion
3.07275 °/min
Orbital period
117.16 mins
BSTAR
0.0037819
Loading maneuver chart data...
Computing Atmospheric mass density...
Loading historical data...
Loading historical data...
Loading historical data...
Loading historical data...
Loading historical data...
Loading historical data...
Loading historical data...

Documentation

Showing up to 5 results
|